Terminal Aerodrome Forecast
Issued by NWS

Home | Current Version | Previous Version | Text Only | Print | Product List | Glossary On
Versions: 1 2 3 4 5 6 7 8 9 10 11 12 13 14 15 16 17 18 19 20 21 22 23 24 25 26 27 28 29 30 31 32 33 34 35 36 37 38 39 40 41 42 43 44 45 46 47 48 49 50
000
FTUS43 KMKX 202015 AAC
TAFUES
TAF AMD
KUES 202015Z 2020/2118 24009G17KT P6SM SCT035 BKN080
     FM202300 25009KT P6SM SCT040
     FM210200 26005KT P6SM BKN040
     FM210500 26004KT P6SM VCTS BKN060CB
     FM210900 28009KT P6SM BKN025
     FM211400 31013KT P6SM BKN015
     FM211700 33013G21KT P6SM BKN025=

USA.gov is the U.S. government's official web portal to all federal, state and local government web resources and services.